[[{"header":{"parameterUnit":"m.s-1","parameterCategory":2,"la1":30.2991,"la2":30.254,"lo1":-89.0895,"lo2":-89.0444,"dy":0.0017,"dx":0.0017,"nx":28,"ny":28,"refTime":"2025-11-08T03:00:00:Z","depth":"0","parameterNumber":2,"parameterNumberName":"U-component_of_CURRENTS"},"data":[0,0,0,0,0,0,0,0,0,0,0,0,0,0,0,0,0,0,0,0,0,0,0,0,0,0,0,0,0,0,0,0,0,0,0,0,0,0,0,0,0,0,0,0,0,0,0,0,0,0,0,0,0,0,0,0,0,0,-0.2256,-0.2257,0,-0.2262,-0.2261,-0.2261,-0.2236,-0.2235,-0.2235,-0.2234,-0.2245,-0.2246,-0.2247,0,0,0,0,0,0,0,0,0,0,0,0,0,-0.2232,-0.2233,-0.2256,-0.2257,-0.2257,-0.2262,-0.2261,-0.2261,-0.2236,-0.2235,-0.2235,-0.2234,-0.2245,-0.2246,-0.2247,0,0,0,0,0,0,0,0,0,0,0,0,0,-0.2239,-0.2233,-0.2256,-0.2246,-0.2246,-0.2262,-0.2261,-0.2261,-0.2236,-0.2235,-0.2235,-0.2234,-0.2244,-0.2246,-0.2247,-0.2271,0,0,-0.225,-0.2251,0,0,0,0,0,0,0,0,-0.2239,-0.224,-0.2248,-0.2247,-0.2246,-0.2249,-0.2257,-0.2265,-0.2236,-0.2238,-0.2234,-0.2233,-0.2249,-0.225,-0.225,-0.2271,-0.2272,-0.2251,-0.2251,-0.2252,-0.2252,0,0,0,0,0,0,0,-0.2238,-0.2239,-0.2256,-0.2248,-0.2247,-0.2244,-0.2244,-0.2258,-0.2247,-0.2238,-0.2236,-0.224,-0.2248,-0.2248,-0.225,-0.2272,-0.2251,-0.2252,-0.2252,-0.2253,-0.2327,-0.2329,0,0,0,0,0,0,-0.2242,-0.2239,-0.2256,-0.2257,-0.2242,-0.2246,-0.2245,-0.2247,-0.2246,-0.2246,-0.2241,-0.2239,-0.2247,-0.2248,-0.225,-0.2273,-0.2252,-0.2253,-0.2254,-0.2326,-0.2328,-0.2329,0,0,0,0,0,0,-0.2242,-0.2244,-0.2256,-0.225,-0.2251,-0.2247,-0.225,-0.2248,-0.2245,-0.2249,-0.2248,-0.2239,-0.2246,-0.2248,-0.2262,-0.2273,-0.2253,-0.2255,-0.2325,-0.2327,-0.2328,-0.2323,0,0,0,0,0,0,-0.2241,-0.2243,-0.2242,-0.225,-0.2252,-0.2264,-0.2251,-0.2249,-0.225,-0.2247,-0.2248,-0.2248,-0.2246,-0.226,-0.2263,-0.2275,-0.2256,-0.2323,-0.2326,-0.2328,-0.2322,-0.2324,-0.2327,0,0,0,0,0,-0.224,-0.224,-0.2242,-0.2244,-0.2252,-0.2264,-0.2265,-0.2258,-0.225,-0.2251,-0.2253,-0.2247,-0.2278,-0.2262,-0.2265,-0.2277,-0.2322,-0.2325,-0.2328,-0.232,-0.2324,-0.2327,0,0,0,0,0,0,-0.2225,-0.2238,-0.224,-0.2243,-0.2254,-0.2261,-0.2259,-0.226,-0.2262,-0.2258,-0.2258,-0.2259,-0.2278,-0.2285,-0.2267,-0.231,-0.2302,-0.2305,-0.2295,-0.2299,-0.2301,-0.2293,-0.2257,0,0,0,0,0,-0.2225,-0.2227,-0.2243,-0.2245,-0.2251,-0.2257,-0.226,-0.226,-0.2265,-0.2264,-0.2267,-0.2278,-0.2295,-0.23,-0.2315,-0.2334,-0.2333,-0.2349,-0.2351,-0.2353,-0.2351,-0.2367,-0.237,-0.2338,-0.2338,-0.2338,0,0,-0.222,-0.2227,-0.2228,-0.2242,-0.2248,-0.226,-0.2256,-0.2262,-0.227,-0.2268,-0.2275,-0.2286,-0.2304,-0.2324,-0.2334,-0.2327,-0.2361,-0.2357,-0.2358,-0.2355,-0.237,-0.2373,-0.2375,-0.234,-0.234,-0.234,0,0,-0.2214,-0.2219,-0.2221,-0.2234,-0.2248,-0.2257,-0.2261,-0.2272,-0.2273,-0.2288,-0.2293,-0.2308,-0.233,-0.2343,-0.2354,-0.2384,-0.2376,-0.2396,-0.2397,-0.2412,-0.2414,-0.2416,-0.2405,-0.2406,-0.2395,-0.2395,-0.2395,0,-0.2209,-0.2213,-0.2224,-0.2234,-0.2243,-0.2257,-0.2266,-0.2277,-0.229,-0.2298,-0.2289,-0.2329,-0.2338,-0.237,-0.2377,-0.2388,-0.2387,-0.2378,-0.2413,-0.2415,-0.2417,-0.2406,-0.2407,-0.2395,-0.2395,-0.2395,-0.2395,0,-0.2208,-0.2213,-0.2216,-0.2234,-0.2248,-0.2256,-0.228,-0.2291,-0.2296,-0.2307,-0.2334,-0.2347,-0.2368,-0.2381,-0.2384,-0.2413,-0.2403,-0.2413,-0.2397,-0.2419,-0.2407,-0.2408,-0.2395,-0.2395,-0.2395,-0.2395,0,0,-0.2189,-0.2211,-0.2211,-0.2217,-0.2247,-0.2256,-0.2281,-0.2305,-0.2317,-0.2334,-0.2349,-0.2379,-0.2384,-0.2398,-0.2411,-0.2421,-0.2427,-0.242,-0.242,-0.2395,-0.2441,-0.2416,-0.2415,-0.2441,-0.2442,-0.2442,-0.2421,0,-0.2182,-0.2191,-0.2211,-0.2223,-0.2229,-0.2259,-0.2281,-0.2307,-0.2326,-0.2345,-0.2369,-0.2387,-0.2393,-0.2399,-0.2415,-0.2431,-0.2432,-0.243,-0.2436,-0.2436,-0.24,-0.2417,-0.2367,-0.2343,-0.2422,-0.2422,-0.2422,0,-0.2172,-0.2178,-0.2184,-0.2211,-0.2218,-0.2231,-0.2264,-0.2285,-0.2328,-0.2345,-0.2373,-0.239,-0.2417,-0.2414,-0.244,-0.2439,-0.2437,-0.2441,-0.2441,-0.2421,-0.2414,-0.2339,-0.2342,-0.2228,-0.2424,-0.2424,-0.2423,0,-0.2135,-0.2159,-0.2158,-0.2167,-0.2203,-0.2212,-0.2233,-0.2276,-0.2295,-0.2338,-0.2356,-0.2394,-0.2406,-0.2423,-0.2435,-0.2437,-0.2453,-0.246,-0.2431,-0.2429,-0.2389,-0.2382,-0.2271,-0.2469,-0.2469,-0.2469,-0.2469,0,-0.2112,-0.2113,-0.2136,-0.2133,-0.2136,-0.2177,-0.2188,-0.2221,-0.2268,-0.229,-0.2343,-0.2368,-0.241,-0.2428,-0.2434,-0.2434,-0.2453,-0.2429,-0.2427,-0.2385,-0.2379,-0.2281,-0.2244,-0.2468,-0.2468,-0.2469,-0.2469,0,-0.2063,-0.2085,-0.2081,-0.2106,-0.2113,-0.2109,-0.2149,-0.216,-0.2219,-0.225,-0.2264,-0.2342,-0.2376,-0.2406,-0.243,-0.2426,-0.2355,-0.2421,-0.2357,-0.2348,-0.2218,-0.2184,-0.2082,-0.1997,-0.2386,-0.2386,-0.2385,0,-0.2035,-0.2025,-0.2037,-0.2027,-0.2032,-0.204,-0.2047,-0.2116,-0.2135,-0.2232,-0.2242,-0.2301,-0.234,-0.2372,-0.2395,-0.24,-0.2311,-0.2324,-0.2327,-0.2197,-0.2157,-0.2115,-0.2047,-0.2264,-0.2263,-0.2262,-0.2261,0,-0.1967,-0.1972,-0.1962,-0.1936,-0.1933,-0.1938,-0.1958,-0.1977,-0.2065,-0.2114,-0.2179,-0.2223,-0.2305,-0.2315,-0.2332,-0.2324,-0.2205,-0.2299,-0.2187,-0.2069,-0.1994,-0.1915,-0.2273,-0.225,-0.2251,-0.2252,-0.2252,-0.2253,-0.1905,-0.1877,-0.1855,-0.1826,-0.1822,-0.1813,-0.1782,-0.1848,-0.1882,-0.1948,-0.2066,-0.212,-0.2199,-0.2246,-0.2221,-0.2119,-0.2139,-0.2045,-0.2018,-0.1989,-0.1892,-0.2214,-0.2179,-0.2179,-0.218,-0.2181,-0.2181,0,-0.1817,-0.1785,-0.1744,-0.1699,-0.1644,-0.1682,-0.1695,-0.1665,-0.168,-0.1825,-0.1892,-0.1991,-0.1991,-0.2016,-0.197,-0.1847,-0.1794,-0.1756,-0.1671,-0.1618,-0.1921,-0.1899,-0.1774,-0.1774,-0.1774,-0.1774,-0.1774,-0.1774,-0.1766,-0.1696,-0.1668,-0.1531,-0.1487,-0.1389,-0.1371,-0.138,-0.1449,-0.1555,-0.1656,-0.1793,-0.1912,-0.1818,-0.1627,-0.1558,-0.1394,-0.1395,-0.1326,-0.1524,-0.1548,-0.1571,-0.1539,-0.134,-0.1339,-0.0989,-0.0986,-0.0983]},{"header":{"parameterUnit":"m.s-1","parameterCategory":2,"la1":30.2991,"la2":30.254,"lo1":-89.0895,"lo2":-89.0444,"dy":0.0017,"dx":0.0017,"nx":28,"ny":28,"refTime":"2025-11-08T03:00:00:Z","depth":"0","parameterNumber":3,"parameterNumberName":"V-component_of_CURRENTS"},"data":[0,0,0,0,0,0,0,0,0,0,0,0,0,0,0,0,0,0,0,0,0,0,0,0,0,0,0,0,0,0,0,0,0,0,0,0,0,0,0,0,0,0,0,0,0,0,0,0,0,0,0,0,0,0,0,0,0,0,-0.0587,-0.0586,0,-0.0507,-0.0506,-0.0505,-0.0454,-0.0454,-0.0454,-0.0454,-0.0371,-0.0369,-0.0367,0,0,0,0,0,0,0,0,0,0,0,0,0,-0.0647,-0.0647,-0.0587,-0.0586,-0.0585,-0.0507,-0.0506,-0.0504,-0.0454,-0.0454,-0.0454,-0.0454,-0.0372,-0.037,-0.0367,0,0,0,0,0,0,0,0,0,0,0,0,0,-0.0599,-0.0647,-0.0587,-0.0551,-0.0547,-0.0507,-0.0506,-0.0504,-0.0455,-0.0454,-0.0454,-0.0454,-0.0373,-0.037,-0.0367,-0.0354,0,0,-0.0358,-0.0356,0,0,0,0,0,0,0,0,-0.0602,-0.0597,-0.0557,-0.0554,-0.0549,-0.0491,-0.0497,-0.0454,-0.0455,-0.0489,-0.0454,-0.0453,-0.0412,-0.0406,-0.039,-0.0351,-0.0347,-0.0357,-0.0356,-0.0354,-0.0353,0,0,0,0,0,0,0,-0.0605,-0.06,-0.0554,-0.0556,-0.0551,-0.0522,-0.0516,-0.0488,-0.0452,-0.0486,-0.0482,-0.0475,-0.0409,-0.0393,-0.0388,-0.0346,-0.0357,-0.0355,-0.0353,-0.0352,-0.0312,-0.0312,0,0,0,0,0,0,-0.062,-0.0603,-0.0557,-0.0552,-0.0576,-0.0522,-0.0514,-0.0509,-0.0453,-0.0444,-0.0475,-0.0473,-0.0398,-0.0391,-0.0385,-0.0382,-0.0354,-0.0351,-0.035,-0.0311,-0.0312,-0.0312,0,0,0,0,0,0,-0.0621,-0.0616,-0.056,-0.0576,-0.0567,-0.0522,-0.0516,-0.0508,-0.0491,-0.0445,-0.0436,-0.0467,-0.0398,-0.0389,-0.037,-0.0378,-0.035,-0.0347,-0.031,-0.0311,-0.0312,-0.0367,0,0,0,0,0,0,-0.0623,-0.0618,-0.0618,-0.0577,-0.0567,-0.0541,-0.0516,-0.0507,-0.0487,-0.0483,-0.0435,-0.0426,-0.0397,-0.0375,-0.0367,-0.0373,-0.0345,-0.0309,-0.031,-0.0312,-0.0364,-0.037,-0.0375,0,0,0,0,0,-0.0626,-0.0627,-0.0619,-0.0613,-0.057,-0.0541,-0.0533,-0.0499,-0.0487,-0.0482,-0.0456,-0.0428,-0.0378,-0.0373,-0.0363,-0.0369,-0.0308,-0.031,-0.0312,-0.0362,-0.0369,-0.0375,0,0,0,0,0,0,-0.0649,-0.0621,-0.0611,-0.0603,-0.0578,-0.0533,-0.0524,-0.0503,-0.0477,-0.0475,-0.0433,-0.0424,-0.0412,-0.0385,-0.0381,-0.0364,-0.034,-0.034,-0.0382,-0.0387,-0.0393,-0.0401,-0.0342,0,0,0,0,0,-0.0658,-0.0654,-0.0621,-0.0615,-0.0605,-0.0567,-0.0552,-0.053,-0.0502,-0.0489,-0.0457,-0.0429,-0.0411,-0.0396,-0.0373,-0.036,-0.0337,-0.036,-0.0365,-0.0369,-0.0371,-0.0348,-0.0351,-0.0318,-0.0318,-0.0318,0,0,-0.0665,-0.0649,-0.0646,-0.062,-0.0598,-0.0591,-0.0557,-0.0538,-0.0533,-0.0485,-0.0471,-0.0445,-0.0413,-0.0402,-0.0394,-0.038,-0.0369,-0.0371,-0.0375,-0.0375,-0.035,-0.0353,-0.0356,-0.0319,-0.0319,-0.0319,0,0,-0.0681,-0.0666,-0.0669,-0.0655,-0.0629,-0.0607,-0.0606,-0.0567,-0.0552,-0.0535,-0.0507,-0.049,-0.0451,-0.0433,-0.0419,-0.044,-0.0399,-0.0432,-0.0459,-0.0438,-0.044,-0.0442,-0.0424,-0.0423,-0.0432,-0.0432,-0.0432,0,-0.0693,-0.0691,-0.0665,-0.0666,-0.066,-0.062,-0.0625,-0.0604,-0.0565,-0.0558,-0.0539,-0.0495,-0.0467,-0.0459,-0.0467,-0.0451,-0.0431,-0.0438,-0.0444,-0.0445,-0.0446,-0.0427,-0.0426,-0.0435,-0.0434,-0.0434,-0.0434,0,-0.0711,-0.0711,-0.0712,-0.0705,-0.0696,-0.0691,-0.0665,-0.0654,-0.0631,-0.0607,-0.059,-0.0552,-0.0525,-0.0517,-0.0495,-0.0492,-0.0474,-0.0455,-0.0428,-0.0453,-0.0431,-0.0429,-0.0439,-0.0438,-0.0437,-0.0436,0,0,-0.0736,-0.0728,-0.0729,-0.0738,-0.0718,-0.0714,-0.0712,-0.0697,-0.0698,-0.0658,-0.0655,-0.0622,-0.0594,-0.0578,-0.0548,-0.0527,-0.0519,-0.0496,-0.0493,-0.0478,-0.0471,-0.047,-0.0468,-0.0498,-0.0497,-0.0497,-0.0456,0,-0.076,-0.0775,-0.0763,-0.0783,-0.0791,-0.0767,-0.0771,-0.0755,-0.073,-0.0715,-0.0674,-0.0657,-0.062,-0.0608,-0.0583,-0.0534,-0.0514,-0.0531,-0.0449,-0.0447,-0.0443,-0.0466,-0.0549,-0.052,-0.0454,-0.0453,-0.0453,0,-0.0785,-0.0792,-0.0815,-0.0829,-0.0831,-0.0838,-0.0841,-0.0836,-0.0807,-0.0788,-0.0758,-0.0719,-0.0686,-0.0649,-0.0576,-0.0587,-0.0537,-0.0496,-0.0493,-0.047,-0.0442,-0.0483,-0.0518,-0.0519,-0.0449,-0.045,-0.045,0,-0.082,-0.0833,-0.0855,-0.0858,-0.0863,-0.0875,-0.0875,-0.0859,-0.0862,-0.083,-0.0826,-0.0772,-0.0745,-0.0676,-0.0587,-0.0581,-0.0502,-0.0484,-0.0437,-0.0436,-0.0479,-0.0483,-0.0506,-0.0436,-0.0436,-0.0436,-0.0437,0,-0.0852,-0.0871,-0.0874,-0.0888,-0.0922,-0.0912,-0.0939,-0.0929,-0.0917,-0.0929,-0.0865,-0.0859,-0.0749,-0.0687,-0.0605,-0.0515,-0.0514,-0.0447,-0.0427,-0.0502,-0.0507,-0.0486,-0.0474,-0.0435,-0.0435,-0.0436,-0.0436,0,-0.0885,-0.0885,-0.0915,-0.093,-0.094,-0.0963,-0.0985,-0.1002,-0.0981,-0.0994,-0.0988,-0.0921,-0.0842,-0.073,-0.0615,-0.0545,-0.0454,-0.0423,-0.0518,-0.051,-0.0474,-0.0462,-0.0385,-0.0382,-0.0375,-0.0375,-0.0375,0,-0.0901,-0.0916,-0.0948,-0.0975,-0.0984,-0.1015,-0.104,-0.1035,-0.1053,-0.1037,-0.1049,-0.0975,-0.094,-0.0767,-0.0633,-0.0499,-0.0451,-0.0478,-0.0484,-0.0491,-0.0462,-0.0402,-0.0402,-0.0565,-0.0567,-0.0568,-0.0569,0,-0.0927,-0.0936,-0.0959,-0.1013,-0.105,-0.1092,-0.1125,-0.1156,-0.1153,-0.1168,-0.1171,-0.1143,-0.0983,-0.0892,-0.0698,-0.06,-0.05,-0.0496,-0.0486,-0.0602,-0.0556,-0.0539,-0.0569,-0.0579,-0.0578,-0.0577,-0.0577,-0.0576,-0.0941,-0.0966,-0.0996,-0.1049,-0.1097,-0.1161,-0.1203,-0.1252,-0.1298,-0.1351,-0.1296,-0.1307,-0.1155,-0.0908,-0.0772,-0.0617,-0.0547,-0.0593,-0.0573,-0.0506,-0.0523,-0.057,-0.0564,-0.0563,-0.0563,-0.0562,-0.0561,0,-0.096,-0.0984,-0.1032,-0.1096,-0.1154,-0.1171,-0.1252,-0.1304,-0.1385,-0.147,-0.1493,-0.1461,-0.1305,-0.1101,-0.0859,-0.0741,-0.0667,-0.0675,-0.0646,-0.0637,-0.0687,-0.0718,-0.0768,-0.0768,-0.0768,-0.0768,-0.0768,-0.0768,-0.0968,-0.1011,-0.1037,-0.1126,-0.1172,-0.1253,-0.1303,-0.1402,-0.1487,-0.1641,-0.1704,-0.1729,-0.1531,-0.1112,-0.0869,-0.0798,-0.0724,-0.0691,-0.0611,-0.0704,-0.0696,-0.0688,-0.0716,-0.0765,-0.0765,-0.0599,-0.0598,-0.0597]}],[{"header":{"parameterUnit":"m.s-1","parameterCategory":2,"la1":30.2991,"la2":30.254,"lo1":-89.0895,"lo2":-89.0444,"dy":0.0017,"dx":0.0017,"nx":28,"ny":28,"refTime":"2025-11-08T03:00:00:Z","depth":"2","parameterNumber":2,"parameterNumberName":"U-component_of_CURRENTS"},"data":[0,0,0,0,0,0,0,0,0,0,0,0,0,0,0,0,0,0,0,0,0,0,0,0,0,0,0,0,0,0,0,0,0,0,0,0,0,0,0,0,0,0,0,0,0,0,0,0,0,0,0,0,0,0,0,0,0,0,-0.2258,-0.2258,0,-0.2263,-0.2263,-0.2263,-0.2239,-0.2238,-0.2237,-0.2237,-0.2248,-0.2249,-0.225,0,0,0,0,0,0,0,0,0,0,0,0,0,-0.2233,-0.2234,-0.2258,-0.2258,-0.2258,-0.2263,-0.2263,-0.2263,-0.2239,-0.2238,-0.2237,-0.2237,-0.2248,-0.2249,-0.225,0,0,0,0,0,0,0,0,0,0,0,0,0,-0.224,-0.2234,-0.2258,-0.2248,-0.2247,-0.2264,-0.2263,-0.2263,-0.2239,-0.2238,-0.2237,-0.2236,-0.2248,-0.2249,-0.225,-0.2274,0,0,-0.2254,-0.2254,0,0,0,0,0,0,0,0,-0.224,-0.2241,-0.2249,-0.2249,-0.2248,-0.2251,-0.2259,-0.2268,-0.2239,-0.224,-0.2237,-0.2236,-0.2252,-0.2253,-0.2253,-0.2275,-0.2275,-0.2254,-0.2255,-0.2255,-0.2256,0,0,0,0,0,0,0,-0.2239,-0.2241,-0.2258,-0.225,-0.2249,-0.2246,-0.2246,-0.226,-0.2249,-0.224,-0.2239,-0.2243,-0.2251,-0.2251,-0.2253,-0.2275,-0.2254,-0.2255,-0.2256,-0.2256,-0.2331,-0.2332,0,0,0,0,0,0,-0.2243,-0.224,-0.2258,-0.2258,-0.2244,-0.2247,-0.2247,-0.2249,-0.2249,-0.2248,-0.2243,-0.2241,-0.225,-0.2251,-0.2253,-0.2277,-0.2255,-0.2256,-0.2257,-0.233,-0.2331,-0.2333,0,0,0,0,0,0,-0.2243,-0.2245,-0.2258,-0.2251,-0.2253,-0.2249,-0.2252,-0.225,-0.2247,-0.2252,-0.2251,-0.2242,-0.2249,-0.2251,-0.2265,-0.2277,-0.2257,-0.2258,-0.2328,-0.233,-0.2332,-0.2327,0,0,0,0,0,0,-0.2242,-0.2244,-0.2244,-0.2251,-0.2253,-0.2266,-0.2253,-0.2251,-0.2252,-0.2249,-0.2251,-0.2251,-0.2249,-0.2263,-0.2266,-0.2278,-0.2259,-0.2327,-0.2329,-0.2332,-0.2325,-0.2328,-0.2331,0,0,0,0,0,-0.2241,-0.2241,-0.2243,-0.2246,-0.2253,-0.2266,-0.2267,-0.226,-0.2253,-0.2254,-0.2255,-0.225,-0.2281,-0.2265,-0.2269,-0.2281,-0.2326,-0.2329,-0.2331,-0.2324,-0.2328,-0.2331,0,0,0,0,0,0,-0.2227,-0.2239,-0.2242,-0.2244,-0.2256,-0.2262,-0.2261,-0.2263,-0.2265,-0.226,-0.2261,-0.2262,-0.2281,-0.2288,-0.2271,-0.2313,-0.2305,-0.2309,-0.2299,-0.2302,-0.2305,-0.2297,-0.226,0,0,0,0,0,-0.2226,-0.2229,-0.2245,-0.2246,-0.2252,-0.2259,-0.2262,-0.2262,-0.2268,-0.2267,-0.227,-0.2281,-0.2298,-0.2303,-0.2318,-0.2338,-0.2336,-0.2353,-0.2355,-0.2357,-0.2355,-0.2371,-0.2374,-0.2342,-0.2342,-0.2342,0,0,-0.2221,-0.2228,-0.2229,-0.2244,-0.2249,-0.2262,-0.2258,-0.2264,-0.2273,-0.227,-0.2278,-0.2289,-0.2307,-0.2327,-0.2337,-0.2331,-0.2364,-0.2361,-0.2362,-0.2359,-0.2374,-0.2377,-0.2379,-0.2344,-0.2344,-0.2343,0,0,-0.2215,-0.222,-0.2223,-0.2235,-0.225,-0.2259,-0.2263,-0.2274,-0.2275,-0.2291,-0.2295,-0.2311,-0.2333,-0.2346,-0.2357,-0.2388,-0.238,-0.24,-0.2401,-0.2416,-0.2418,-0.242,-0.2409,-0.241,-0.2398,-0.2398,-0.2398,0,-0.221,-0.2214,-0.2226,-0.2236,-0.2245,-0.2259,-0.2269,-0.2279,-0.2293,-0.23,-0.2292,-0.2333,-0.2342,-0.2374,-0.2381,-0.2392,-0.2391,-0.2382,-0.2417,-0.2419,-0.2421,-0.2409,-0.241,-0.2398,-0.2398,-0.2398,-0.2398,0,-0.2209,-0.2215,-0.2218,-0.2236,-0.225,-0.2258,-0.2282,-0.2294,-0.2299,-0.231,-0.2337,-0.235,-0.2372,-0.2385,-0.2388,-0.2417,-0.2407,-0.2417,-0.2401,-0.2423,-0.241,-0.2411,-0.2399,-0.2399,-0.2399,-0.2398,0,0,-0.219,-0.2213,-0.2213,-0.2218,-0.2249,-0.2258,-0.2284,-0.2308,-0.232,-0.2337,-0.2352,-0.2383,-0.2388,-0.2402,-0.2415,-0.2425,-0.2431,-0.2424,-0.2424,-0.2398,-0.2444,-0.2419,-0.2418,-0.2445,-0.2446,-0.2446,-0.2424,0,-0.2184,-0.2193,-0.2213,-0.2225,-0.2231,-0.2261,-0.2283,-0.231,-0.2329,-0.2348,-0.2372,-0.2391,-0.2397,-0.2403,-0.2419,-0.2434,-0.2436,-0.2434,-0.244,-0.2439,-0.2403,-0.2419,-0.2192,-0.2152,-0.2425,-0.2425,-0.2426,0,-0.2173,-0.218,-0.2186,-0.2213,-0.222,-0.2233,-0.2267,-0.2288,-0.2331,-0.2348,-0.2376,-0.2394,-0.242,-0.2417,-0.2444,-0.2443,-0.244,-0.2445,-0.2445,-0.2424,-0.2417,-0.2179,-0.2144,-0.2427,-0.2427,-0.2427,-0.2427,0,-0.2137,-0.2161,-0.216,-0.2169,-0.2205,-0.2215,-0.2235,-0.2279,-0.2298,-0.2341,-0.2359,-0.2397,-0.241,-0.2427,-0.2438,-0.2441,-0.2456,-0.2463,-0.2434,-0.2431,-0.224,-0.222,-0.2472,-0.2472,-0.2472,-0.2472,-0.2473,0,-0.2114,-0.2115,-0.2139,-0.2136,-0.2139,-0.218,-0.2191,-0.2224,-0.2271,-0.2293,-0.2347,-0.2371,-0.2413,-0.2431,-0.2438,-0.2437,-0.2456,-0.2432,-0.2429,-0.2233,-0.2213,-0.246,-0.2458,-0.2472,-0.2472,-0.2472,-0.2472,0,-0.2065,-0.2087,-0.2083,-0.2109,-0.2116,-0.2112,-0.2152,-0.2163,-0.2222,-0.2253,-0.2267,-0.2345,-0.2379,-0.2409,-0.2433,-0.2429,-0.2433,-0.2424,-0.2181,-0.2152,-0.2394,-0.2393,-0.239,-0.2389,-0.2388,-0.2387,-0.2387,0,-0.2037,-0.2027,-0.204,-0.203,-0.2035,-0.2043,-0.205,-0.2119,-0.2139,-0.2235,-0.2244,-0.2304,-0.2332,-0.2364,-0.2333,-0.2323,-0.241,-0.214,-0.2118,-0.239,-0.2388,-0.2388,-0.2389,-0.1846,-0.1841,-0.1837,-0.1834,0,-0.197,-0.1974,-0.1965,-0.1939,-0.1937,-0.1942,-0.1962,-0.198,-0.2068,-0.2107,-0.2171,-0.2206,-0.2238,-0.2134,-0.213,-0.2104,-0.2128,-0.2062,-0.2389,-0.1927,-0.1883,-0.188,-0.1896,-0.1798,-0.1802,-0.1804,-0.1806,-0.1808,-0.1907,-0.1879,-0.1858,-0.1829,-0.1825,-0.1816,-0.1786,-0.1822,-0.1843,-0.1852,-0.1989,-0.1956,-0.1991,-0.1866,-0.1812,-0.1771,-0.1943,-0.1865,-0.1875,-0.1889,-0.1855,-0.1814,-0.1708,-0.1711,-0.1713,-0.1715,-0.1717,0,-0.1809,-0.1787,-0.1748,-0.1703,-0.1641,-0.1686,-0.1699,-0.164,-0.1607,-0.1645,-0.1648,-0.1526,-0.1452,-0.1507,-0.1376,-0.1404,-0.1353,-0.1368,-0.1274,-0.1311,-0.1344,-0.128,-0.0981,-0.0979,-0.0977,-0.0975,0,0,-0.1756,-0.1682,-0.1655,-0.152,-0.1484,-0.1379,-0.136,-0.1306,-0.1292,-0.1237,-0.1205,-0.1266,-0.1404,-0.1139,-0.1128,-0.1028,-0.1146,-0.0976,-0.1562,-0.1483,-0.1512,-0.1628,-0.1572,0,0,0,0,0]},{"header":{"parameterUnit":"m.s-1","parameterCategory":2,"la1":30.2991,"la2":30.254,"lo1":-89.0895,"lo2":-89.0444,"dy":0.0017,"dx":0.0017,"nx":28,"ny":28,"refTime":"2025-11-08T03:00:00:Z","depth":"2","parameterNumber":3,"parameterNumberName":"V-component_of_CURRENTS"},"data":[0,0,0,0,0,0,0,0,0,0,0,0,0,0,0,0,0,0,0,0,0,0,0,0,0,0,0,0,0,0,0,0,0,0,0,0,0,0,0,0,0,0,0,0,0,0,0,0,0,0,0,0,0,0,0,0,0,0,-0.0541,-0.054,0,-0.0461,-0.046,-0.0459,-0.041,-0.0409,-0.0409,-0.0409,-0.0327,-0.0325,-0.0323,0,0,0,0,0,0,0,0,0,0,0,0,0,-0.0602,-0.0601,-0.0541,-0.054,-0.0539,-0.0461,-0.046,-0.0459,-0.041,-0.0409,-0.0409,-0.0409,-0.0328,-0.0325,-0.0323,0,0,0,0,0,0,0,0,0,0,0,0,0,-0.0553,-0.0601,-0.0541,-0.0506,-0.0502,-0.0461,-0.046,-0.0458,-0.041,-0.0409,-0.0409,-0.0409,-0.0328,-0.0325,-0.0322,-0.0309,0,0,-0.0313,-0.0312,0,0,0,0,0,0,0,0,-0.0556,-0.0551,-0.0512,-0.0508,-0.0504,-0.0446,-0.0451,-0.0409,-0.041,-0.0444,-0.0409,-0.0409,-0.0367,-0.0361,-0.0345,-0.0305,-0.0302,-0.0313,-0.0311,-0.031,-0.0309,0,0,0,0,0,0,0,-0.056,-0.0554,-0.0508,-0.0511,-0.0506,-0.0477,-0.047,-0.0443,-0.0407,-0.0441,-0.0437,-0.043,-0.0365,-0.0348,-0.0343,-0.0301,-0.0313,-0.031,-0.0308,-0.0307,-0.0267,-0.0267,0,0,0,0,0,0,-0.0574,-0.0557,-0.0511,-0.0506,-0.0531,-0.0477,-0.0469,-0.0464,-0.0407,-0.0399,-0.043,-0.0428,-0.0354,-0.0347,-0.034,-0.0338,-0.031,-0.0307,-0.0305,-0.0266,-0.0267,-0.0267,0,0,0,0,0,0,-0.0576,-0.0571,-0.0514,-0.053,-0.0521,-0.0476,-0.0471,-0.0462,-0.0446,-0.04,-0.0391,-0.0422,-0.0353,-0.0344,-0.0325,-0.0334,-0.0306,-0.0303,-0.0265,-0.0266,-0.0267,-0.0323,0,0,0,0,0,0,-0.0578,-0.0572,-0.0573,-0.0532,-0.0521,-0.0495,-0.0471,-0.0461,-0.0442,-0.0438,-0.039,-0.0382,-0.0352,-0.033,-0.0322,-0.0329,-0.03,-0.0264,-0.0265,-0.0267,-0.032,-0.0325,-0.033,0,0,0,0,0,-0.058,-0.0581,-0.0574,-0.0568,-0.0524,-0.0496,-0.0488,-0.0454,-0.0442,-0.0437,-0.0411,-0.0383,-0.0333,-0.0328,-0.0319,-0.0325,-0.0263,-0.0265,-0.0267,-0.0317,-0.0324,-0.033,0,0,0,0,0,0,-0.0604,-0.0575,-0.0566,-0.0557,-0.0533,-0.0488,-0.0479,-0.0458,-0.0432,-0.043,-0.0389,-0.0379,-0.0367,-0.0341,-0.0336,-0.0319,-0.0295,-0.0295,-0.0337,-0.0343,-0.0348,-0.0357,-0.0298,0,0,0,0,0,-0.0612,-0.0608,-0.0575,-0.0569,-0.056,-0.0522,-0.0506,-0.0486,-0.0457,-0.0444,-0.0412,-0.0385,-0.0366,-0.0351,-0.0328,-0.0315,-0.0292,-0.0315,-0.032,-0.0324,-0.0326,-0.0304,-0.0307,-0.0273,-0.0273,-0.0273,0,0,-0.062,-0.0604,-0.0601,-0.0575,-0.0553,-0.0545,-0.0512,-0.0493,-0.0488,-0.044,-0.0426,-0.0401,-0.0368,-0.0357,-0.0349,-0.0335,-0.0324,-0.0327,-0.0331,-0.033,-0.0306,-0.0309,-0.0312,-0.0274,-0.0274,-0.0274,0,0,-0.0635,-0.0621,-0.0624,-0.061,-0.0584,-0.0562,-0.0561,-0.0522,-0.0507,-0.049,-0.0463,-0.0445,-0.0406,-0.0388,-0.0374,-0.0395,-0.0355,-0.0387,-0.0415,-0.0393,-0.0396,-0.0398,-0.038,-0.038,-0.0387,-0.0387,-0.0387,0,-0.0648,-0.0646,-0.062,-0.0621,-0.0615,-0.0575,-0.058,-0.0559,-0.052,-0.0513,-0.0495,-0.0451,-0.0423,-0.0415,-0.0422,-0.0406,-0.0387,-0.0393,-0.04,-0.0401,-0.0402,-0.0384,-0.0383,-0.039,-0.039,-0.0389,-0.0389,0,-0.0666,-0.0666,-0.0667,-0.066,-0.0651,-0.0646,-0.062,-0.0609,-0.0586,-0.0562,-0.0546,-0.0507,-0.0481,-0.0472,-0.045,-0.0448,-0.043,-0.0411,-0.0384,-0.0409,-0.0388,-0.0386,-0.0394,-0.0393,-0.0392,-0.0391,0,0,-0.0692,-0.0683,-0.0684,-0.0693,-0.0673,-0.0669,-0.0667,-0.0652,-0.0653,-0.0614,-0.061,-0.0577,-0.055,-0.0533,-0.0504,-0.0483,-0.0475,-0.0452,-0.0449,-0.0435,-0.0429,-0.0428,-0.0426,-0.0454,-0.0454,-0.0454,-0.0414,0,-0.0715,-0.073,-0.0718,-0.0738,-0.0746,-0.0722,-0.0725,-0.0709,-0.0685,-0.067,-0.0629,-0.0613,-0.0575,-0.0564,-0.0539,-0.049,-0.0471,-0.0488,-0.0407,-0.0404,-0.0401,-0.0424,-0.0325,-0.0282,-0.0412,-0.0412,-0.0412,0,-0.0741,-0.0748,-0.077,-0.0784,-0.0786,-0.0793,-0.0796,-0.0791,-0.0761,-0.0743,-0.0713,-0.0675,-0.0642,-0.0605,-0.0534,-0.0544,-0.0494,-0.0454,-0.0451,-0.0428,-0.04,-0.0277,-0.0273,-0.0408,-0.0408,-0.0408,-0.0409,0,-0.0776,-0.0788,-0.081,-0.0813,-0.0817,-0.083,-0.083,-0.0813,-0.0816,-0.0785,-0.0781,-0.0728,-0.0702,-0.0634,-0.0544,-0.0539,-0.0461,-0.0442,-0.0396,-0.0395,-0.0284,-0.0275,-0.0396,-0.0396,-0.0396,-0.0396,-0.0396,0,-0.0808,-0.0827,-0.083,-0.0844,-0.0878,-0.0867,-0.0894,-0.0884,-0.0872,-0.0884,-0.082,-0.0815,-0.0706,-0.0644,-0.0563,-0.0474,-0.0473,-0.0407,-0.0387,-0.0303,-0.0296,-0.038,-0.0379,-0.0395,-0.0395,-0.0395,-0.0396,0,-0.0841,-0.0842,-0.0871,-0.0886,-0.0896,-0.0919,-0.0941,-0.0958,-0.0937,-0.095,-0.0944,-0.0877,-0.0799,-0.0688,-0.0574,-0.0504,-0.0416,-0.0384,-0.0298,-0.027,-0.0361,-0.0363,-0.0337,-0.0337,-0.0337,-0.0337,-0.0336,0,-0.0858,-0.0873,-0.0905,-0.0931,-0.0941,-0.0972,-0.0997,-0.0991,-0.1009,-0.0993,-0.1005,-0.0932,-0.0884,-0.0713,-0.0522,-0.0372,-0.0414,-0.0251,-0.0231,-0.0373,-0.0356,-0.0359,-0.0361,-0.01,-0.0098,-0.0096,-0.0095,0,-0.0884,-0.0893,-0.0916,-0.097,-0.1007,-0.1049,-0.1082,-0.1112,-0.1108,-0.1107,-0.111,-0.1071,-0.0862,-0.0641,-0.0425,-0.0325,-0.0267,-0.0216,-0.0363,-0.0149,-0.0151,-0.0135,-0.0144,-0.008,-0.0081,-0.0082,-0.0083,-0.0084,-0.0898,-0.0923,-0.0954,-0.1007,-0.1055,-0.1118,-0.116,-0.1138,-0.116,-0.1094,-0.1123,-0.0976,-0.0803,-0.0419,-0.0271,-0.0104,-0.0158,-0.0114,-0.0117,-0.0123,-0.0121,-0.0125,-0.0048,-0.0049,-0.005,-0.0051,-0.0052,0,-0.088,-0.0941,-0.099,-0.1053,-0.1076,-0.1129,-0.1208,-0.1164,-0.1133,-0.1036,-0.0961,-0.0732,-0.0485,-0.0318,-0.0011,0.0086,0.0126,0.0082,0.0125,0.011,0.0096,0.011,0.0245,0.0245,0.0246,0.0246,0,0,-0.0879,-0.0905,-0.0931,-0.1007,-0.1085,-0.1105,-0.1153,-0.1077,-0.0982,-0.0838,-0.0712,-0.0556,-0.043,-0.0169,-0.0012,0.0129,0.0092,0.0157,-0.0081,-0.006,-0.0074,-0.0008,-0.0003,0,0,0,0,0]}],[{"header":{"parameterUnit":"m.s-1","parameterCategory":2,"la1":30.2991,"la2":30.254,"lo1":-89.0895,"lo2":-89.0444,"dy":0.0017,"dx":0.0017,"nx":28,"ny":28,"refTime":"2025-11-08T03:00:00:Z","depth":"4","parameterNumber":2,"parameterNumberName":"U-component_of_CURRENTS"},"data":[0,0,0,0,0,0,0,0,0,0,0,0,0,0,0,0,0,0,0,0,0,0,0,0,0,0,0,0,0,0,0,0,0,0,0,0,0,0,0,0,0,0,0,0,0,0,0,0,0,0,0,0,0,0,0,0,0,0,-0.1465,-0.1466,0,-0.153,-0.1531,-0.1531,-0.1572,-0.1572,-0.1573,-0.1573,-0.167,-0.1672,-0.1674,0,0,0,0,0,0,0,0,0,0,0,0,0,-0.1397,-0.1398,-0.1465,-0.1466,-0.1466,-0.153,-0.1531,-0.1532,-0.1572,-0.1572,-0.1573,-0.1573,-0.1669,-0.1671,-0.1674,0,0,0,0,0,0,0,0,0,0,0,0,0,-0.1441,-0.1398,-0.1465,-0.1494,-0.1498,-0.153,-0.1531,-0.1532,-0.1572,-0.1572,-0.1573,-0.1573,-0.1668,-0.1671,-0.1675,-0.1689,0,0,-0.1685,-0.1687,0,0,0,0,0,0,0,0,-0.1438,-0.1443,-0.1489,-0.1492,-0.1496,-0.1543,-0.1542,-0.1586,-0.1572,-0.1544,-0.1573,-0.1573,-0.163,-0.1637,-0.1648,-0.1694,-0.1698,-0.1686,-0.1688,-0.1689,-0.169,0,0,0,0,0,0,0,-0.1435,-0.1441,-0.149,-0.149,-0.1494,-0.1512,-0.1518,-0.1551,-0.1585,-0.1546,-0.1549,-0.1557,-0.1632,-0.1644,-0.165,-0.1699,-0.1686,-0.1689,-0.1691,-0.1692,-0.1832,-0.1833,0,0,0,0,0,0,-0.1426,-0.1438,-0.1488,-0.1492,-0.1468,-0.1513,-0.152,-0.1528,-0.1584,-0.1592,-0.1556,-0.1558,-0.1638,-0.1646,-0.1654,-0.1728,-0.1689,-0.1693,-0.1695,-0.183,-0.1832,-0.1834,0,0,0,0,0,0,-0.1424,-0.143,-0.1486,-0.1467,-0.1475,-0.1513,-0.1522,-0.1529,-0.1563,-0.1591,-0.16,-0.1586,-0.1638,-0.1649,-0.1703,-0.173,-0.1694,-0.1698,-0.1828,-0.1831,-0.1833,-0.1842,0,0,0,0,0,0,-0.1422,-0.1429,-0.1445,-0.1466,-0.1476,-0.1519,-0.1522,-0.153,-0.1566,-0.157,-0.1619,-0.1627,-0.1639,-0.1698,-0.1706,-0.1734,-0.17,-0.1826,-0.183,-0.1832,-0.1839,-0.1844,-0.1848,0,0,0,0,0,-0.1419,-0.1434,-0.1445,-0.1452,-0.1492,-0.152,-0.1528,-0.1555,-0.1567,-0.1587,-0.1621,-0.1627,-0.1723,-0.1702,-0.1712,-0.1741,-0.1825,-0.1829,-0.1832,-0.1837,-0.1843,-0.1848,0,0,0,0,0,0,-0.1417,-0.144,-0.1452,-0.1476,-0.1503,-0.1528,-0.1551,-0.1569,-0.1611,-0.1622,-0.1646,-0.1656,-0.1714,-0.173,-0.1706,-0.1792,-0.1776,-0.1782,-0.1777,-0.1782,-0.1787,-0.1777,-0.1703,0,0,0,0,0,-0.1422,-0.144,-0.1465,-0.1487,-0.1501,-0.1531,-0.1551,-0.157,-0.1602,-0.1622,-0.1657,-0.1697,-0.1733,-0.176,-0.1794,-0.1841,-0.1835,-0.1868,-0.1873,-0.1876,-0.1877,-0.1892,-0.1897,-0.1846,-0.1846,-0.1846,0,0,-0.1429,-0.1444,-0.1456,-0.1489,-0.1512,-0.1539,-0.1545,-0.158,-0.1611,-0.1627,-0.1688,-0.1716,-0.175,-0.18,-0.1828,-0.1819,-0.1887,-0.1881,-0.1883,-0.1882,-0.1896,-0.19,-0.1904,-0.1848,-0.1848,-0.1847,0,0,-0.144,-0.1464,-0.148,-0.1504,-0.1541,-0.156,-0.1575,-0.1614,-0.1642,-0.1695,-0.1715,-0.1758,-0.182,-0.1845,-0.1865,-0.1917,-0.1909,-0.1936,-0.1951,-0.1965,-0.1969,-0.1972,-0.1958,-0.196,-0.1938,-0.1938,-0.1938,0,-0.145,-0.147,-0.1492,-0.1513,-0.1537,-0.1571,-0.1596,-0.1631,-0.1687,-0.1711,-0.172,-0.1808,-0.1839,-0.189,-0.1909,-0.1926,-0.1922,-0.1924,-0.1968,-0.1971,-0.1974,-0.1959,-0.1961,-0.1939,-0.1939,-0.1939,-0.1939,0,-0.1464,-0.1493,-0.1506,-0.1543,-0.1573,-0.1602,-0.1643,-0.1686,-0.1723,-0.1751,-0.1816,-0.1853,-0.1901,-0.1923,-0.1933,-0.1978,-0.1963,-0.1968,-0.1947,-0.1979,-0.1962,-0.1963,-0.194,-0.194,-0.194,-0.1939,0,0,-0.145,-0.1505,-0.1513,-0.1535,-0.1591,-0.1612,-0.167,-0.1721,-0.1755,-0.1813,-0.1852,-0.192,-0.1935,-0.1958,-0.1979,-0.1997,-0.2013,-0.1994,-0.1994,-0.1965,-0.2023,-0.1899,-0.1889,-0.2023,-0.2024,-0.2025,-0.1996,0,-0.1457,-0.1495,-0.1525,-0.1574,-0.1596,-0.1647,-0.1692,-0.1746,-0.1793,-0.1841,-0.1886,-0.1933,-0.195,-0.1971,-0.1994,-0.2013,-0.2021,-0.2019,-0.201,-0.2009,-0.1882,-0.1888,-0.2027,-0.1997,-0.1998,-0.1998,-0.1998,0,-0.1451,-0.148,-0.1523,-0.1582,-0.1598,-0.1636,-0.1706,-0.1751,-0.1823,-0.1858,-0.1908,-0.194,-0.1988,-0.1991,-0.2029,-0.2026,-0.2027,-0.2033,-0.2032,-0.1914,-0.1888,-0.1964,-0.2001,-0.2001,-0.2,-0.2,-0.2,0,-0.141,-0.1475,-0.151,-0.1532,-0.1605,-0.164,-0.1684,-0.1757,-0.1791,-0.1866,-0.1891,-0.1951,-0.1978,-0.2001,-0.202,-0.2028,-0.2039,-0.2047,-0.1933,-0.1923,-0.2039,-0.2036,-0.2063,-0.2063,-0.2063,-0.2063,-0.2063,0,-0.1385,-0.1417,-0.1497,-0.1514,-0.1557,-0.1618,-0.1667,-0.172,-0.1786,-0.1813,-0.1892,-0.191,-0.1984,-0.2001,-0.2014,-0.1965,-0.2033,-0.1925,-0.1908,-0.2043,-0.2041,-0.2039,-0.2036,-0.2062,-0.2062,-0.2063,-0.2063,0,-0.1327,-0.1384,-0.1427,-0.151,-0.1536,-0.1567,-0.1645,-0.1672,-0.1747,-0.1783,-0.1805,-0.1883,-0.1901,-0.1946,-0.1975,-0.1935,-0.1916,-0.1883,-0.2004,-0.1996,-0.1791,-0.179,-0.1742,-0.1737,-0.1733,-0.173,-0.1727,0,-0.1297,-0.1314,-0.1407,-0.1429,-0.1469,-0.1523,-0.1552,-0.164,-0.1662,-0.1748,-0.1747,-0.1798,-0.1837,-0.1761,-0.1835,-0.1824,-0.1819,-0.1786,-0.1806,-0.177,-0.1759,-0.1764,-0.1768,-0.1721,-0.172,-0.1719,-0.1718,0,-0.1234,-0.1281,-0.1316,-0.1357,-0.1397,-0.1432,-0.1481,-0.1481,-0.1568,-0.1656,-0.1636,-0.1641,-0.1653,-0.1673,-0.1669,-0.1673,-0.1796,-0.1746,-0.1754,-0.1772,-0.1744,-0.1738,-0.1747,-0.1704,-0.1706,-0.1708,-0.1708,0,-0.1188,-0.1196,-0.1243,-0.1268,-0.1314,-0.1313,-0.1356,-0.1369,-0.1398,-0.1494,-0.1484,-0.1547,-0.1622,-0.1593,-0.1597,-0.158,-0.1572,-0.153,-0.155,-0.1566,-0.1526,-0.1466,-0.1314,0,0,0,0,0,-0.113,-0.1123,-0.1143,-0.1164,-0.1205,-0.1226,-0.1292,-0.1338,-0.1422,-0.1365,-0.1416,-0.142,-0.1417,-0.1459,-0.1408,-0.154,-0.1588,-0.1476,-0.1553,-0.1629,-0.1645,-0.1618,0,0,0,0,0,0,-0.1089,-0.1107,-0.1107,-0.1065,-0.1056,-0.1085,-0.1119,-0.1182,-0.1157,-0.1251,-0.1256,-0.1333,-0.1356,-0.142,-0.1377,-0.1391,-0.1411,-0.1526,-0.1523,-0.162,-0.1635,-0.1647,-0.1625,0,0,0,0,0]},{"header":{"parameterUnit":"m.s-1","parameterCategory":2,"la1":30.2991,"la2":30.254,"lo1":-89.0895,"lo2":-89.0444,"dy":0.0017,"dx":0.0017,"nx":28,"ny":28,"refTime":"2025-11-08T03:00:00:Z","depth":"4","parameterNumber":3,"parameterNumberName":"V-component_of_CURRENTS"},"data":[0,0,0,0,0,0,0,0,0,0,0,0,0,0,0,0,0,0,0,0,0,0,0,0,0,0,0,0,0,0,0,0,0,0,0,0,0,0,0,0,0,0,0,0,0,0,0,0,0,0,0,0,0,0,0,0,0,0,0.0157,0.0157,0,0.0188,0.0189,0.0189,0.0219,0.022,0.022,0.022,0.0248,0.0249,0.0249,0,0,0,0,0,0,0,0,0,0,0,0,0,0.0134,0.0134,0.0157,0.0157,0.0157,0.0188,0.0189,0.0189,0.0219,0.022,0.022,0.0221,0.0248,0.0249,0.0249,0,0,0,0,0,0,0,0,0,0,0,0,0,0.0152,0.0134,0.0156,0.0176,0.0178,0.0188,0.0189,0.0189,0.0219,0.022,0.022,0.0221,0.0248,0.0248,0.0249,0.024,0,0,0.0251,0.0251,0,0,0,0,0,0,0,0,0.0151,0.0153,0.0173,0.0175,0.0177,0.0201,0.0191,0.0206,0.0219,0.0203,0.022,0.0221,0.0232,0.0233,0.0238,0.0242,0.0243,0.0251,0.0251,0.0251,0.0251,0,0,0,0,0,0,0,0.015,0.0152,0.0169,0.0173,0.0176,0.0188,0.0191,0.0194,0.0214,0.0205,0.0207,0.0211,0.0233,0.0237,0.0239,0.0243,0.0251,0.0251,0.0252,0.0252,0.0229,0.0228,0,0,0,0,0,0,0.0145,0.0151,0.0168,0.017,0.0166,0.0187,0.0191,0.0192,0.0214,0.0218,0.021,0.0212,0.0236,0.0238,0.024,0.0216,0.0251,0.0252,0.0252,0.023,0.0229,0.0228,0,0,0,0,0,0,0.0144,0.0146,0.0167,0.0161,0.0165,0.0187,0.0188,0.0193,0.0199,0.0218,0.0222,0.0212,0.0237,0.0239,0.0236,0.0217,0.0252,0.0253,0.0231,0.0229,0.0228,0.0177,0,0,0,0,0,0,0.0143,0.0146,0.0143,0.0161,0.0165,0.0167,0.0188,0.0193,0.02,0.0203,0.0221,0.0224,0.0237,0.0235,0.0236,0.0219,0.0253,0.0232,0.023,0.0229,0.0179,0.0174,0.0169,0,0,0,0,0,0.0142,0.0137,0.0142,0.0145,0.0161,0.0167,0.0169,0.0188,0.02,0.0197,0.0207,0.0224,0.0225,0.0234,0.0237,0.0219,0.0233,0.0231,0.0229,0.0182,0.0175,0.0169,0,0,0,0,0,0,0.0126,0.014,0.0146,0.0145,0.0152,0.0172,0.0172,0.0184,0.019,0.0193,0.0213,0.0216,0.0206,0.0218,0.0228,0.0206,0.0231,0.0229,0.0195,0.0188,0.0183,0.018,0.0253,0,0,0,0,0,0.012,0.0119,0.0133,0.0131,0.0134,0.0151,0.0156,0.0167,0.0177,0.0181,0.0192,0.02,0.0197,0.0198,0.0201,0.019,0.0205,0.0179,0.0174,0.0169,0.0168,0.0169,0.0164,0.0221,0.0221,0.0221,0,0,0.0114,0.0121,0.0121,0.0127,0.0136,0.0129,0.0155,0.0159,0.015,0.0181,0.0172,0.0182,0.019,0.0176,0.0172,0.0185,0.016,0.0166,0.0162,0.0163,0.0166,0.0161,0.0156,0.0219,0.022,0.022,0,0,0.0099,0.0105,0.0099,0.0099,0.0107,0.0114,0.0112,0.0126,0.0129,0.0122,0.0138,0.0136,0.0138,0.0138,0.0138,0.0104,0.0131,0.0104,0.0075,0.0076,0.0071,0.0067,0.0078,0.0076,0.0102,0.0102,0.0101,0,0.0092,0.0084,0.0097,0.0087,0.0083,0.0103,0.0089,0.0091,0.0101,0.0096,0.0112,0.0108,0.0118,0.0096,0.0085,0.0091,0.0102,0.0099,0.0069,0.0065,0.0062,0.0074,0.0072,0.0099,0.0099,0.0099,0.01,0,0.0071,0.0061,0.0056,0.0048,0.0043,0.0035,0.0037,0.003,0.0038,0.0043,0.003,0.0043,0.0043,0.0041,0.0054,0.0032,0.005,0.0062,0.0086,0.0054,0.0068,0.0067,0.0095,0.0096,0.0097,0.0097,0,0,0.0064,0.0045,0.0042,0.0026,0.002,0.0012,-0.0009,-0.0022,-0.0038,-0.0028,-0.0046,-0.0047,-0.0029,-0.0028,-0.0013,-0.0011,-0.0022,0.0015,0.0017,0.0027,-0.0012,0.0017,0.0019,-0.0014,-0.0014,-0.0015,0.0006,0,0.0044,0.0014,0.0009,-0.0027,-0.0043,-0.0045,-0.0069,-0.008,-0.0081,-0.0093,-0.008,-0.0089,-0.0059,-0.006,-0.0055,-0.003,-0.0027,-0.0028,0.0017,0.0018,0.0049,0.0017,-0.0016,0.0005,0.0005,0.0005,0.0005,0,0.0026,0.0006,-0.003,-0.007,-0.0078,-0.0101,-0.0136,-0.0153,-0.0165,-0.0164,-0.0164,-0.0148,-0.0147,-0.0114,-0.0088,-0.0088,-0.0055,-0.0032,-0.003,0.0015,0.0045,0.0045,0.0003,0.0003,0.0004,0.0004,0.0004,0,0.0016,-0.0023,-0.0056,-0.0069,-0.0107,-0.0133,-0.0153,-0.0175,-0.0196,-0.0206,-0.0215,-0.0205,-0.0199,-0.0163,-0.0104,-0.01,-0.0064,-0.0053,0.0003,0.0006,-0.0002,0.0002,-0.0037,-0.0037,-0.0037,-0.0037,-0.0037,0,-0.0002,-0.0028,-0.0068,-0.0087,-0.0138,-0.0154,-0.0204,-0.0219,-0.0243,-0.0271,-0.0249,-0.026,-0.021,-0.0179,-0.0124,-0.0059,-0.0079,-0.0007,0.0009,-0.0024,-0.0023,-0.0002,0.0002,-0.0036,-0.0036,-0.0036,-0.0036,0,-0.0003,-0.0027,-0.007,-0.0121,-0.0145,-0.0178,-0.0239,-0.0271,-0.0284,-0.0319,-0.0323,-0.0307,-0.0263,-0.0201,-0.014,-0.0086,-0.0027,0.0003,-0.0032,-0.0018,0.0047,0.0047,0.0054,0.0055,0.0056,0.0057,0.0057,0,-0.0006,-0.0025,-0.0093,-0.013,-0.0158,-0.0213,-0.0255,-0.0288,-0.0319,-0.0345,-0.036,-0.0332,-0.0309,-0.0202,-0.0129,-0.0024,-0.0002,0.003,0.0032,0.0039,0.0054,0.0053,0.0052,0.0059,0.0059,0.0059,0.006,0,-0.0006,-0.0028,-0.0064,-0.014,-0.0198,-0.0261,-0.0318,-0.0345,-0.0379,-0.0393,-0.0393,-0.0342,-0.0288,-0.0201,-0.0112,-0.0037,0.0006,0.004,0.0038,0.004,0.0045,0.0059,0.0057,0.0063,0.0062,0.0062,0.0062,0,-0.0002,-0.0025,-0.0076,-0.0142,-0.0222,-0.0291,-0.0325,-0.0366,-0.0395,-0.0418,-0.0416,-0.0359,-0.0329,-0.0207,-0.0127,-0.0046,-0.0027,0.0,0.0001,-0.0002,-0.0016,-0.0017,-0.0012,0,0,0,0,0,0.0014,-0.0008,-0.0077,-0.0157,-0.0242,-0.0283,-0.036,-0.0387,-0.0422,-0.0425,-0.0421,-0.0368,-0.0256,-0.0209,-0.0124,-0.0103,-0.0007,0.0001,0.0026,0.0081,0.0077,0.0073,0,0,0,0,0,0,0.0023,-0.002,-0.006,-0.0157,-0.0214,-0.0303,-0.0352,-0.038,-0.0381,-0.0401,-0.0344,-0.0327,-0.0217,-0.0294,-0.0112,-0.0089,-0.0059,0.005,0.0052,0.0083,0.0079,0.0076,0.0071,0,0,0,0,0]}]]